N46826 -KSAN

Flight info

Callsign N46826
Flight time N/A
Altitude VFR
Route
Aircraft T6/L-VGD/C

Departure

Time N/A
Airport -

Arrival

Time 2026-05-04 23:16
Airport San Diego International Airport (KSAN)
Time Latitude Longitude Altitude Speed Heading
2026-05-04 23:16 32.73338 -117.17874 26 ft 0 kts 185°
2026-05-04 23:16 32.73335 -117.17874 26 ft 5 kts 186°
2026-05-04 23:17 32.73326 -117.17902 22 ft 7 kts 315°
2026-05-04 23:17 32.73349 -117.17921 23 ft 2 kts 301°
2026-05-04 23:17 32.73296 -117.17974 21 ft 17 kts 198°
2026-05-04 23:17 32.73219 -117.17923 18 ft 14 kts 107°
2026-05-04 23:18 32.73195 -117.17830 19 ft 11 kts 107°
2026-05-04 23:18 32.73172 -117.17739 20 ft 11 kts 107°
2026-05-04 23:18 32.73112 -117.17576 19 ft 23 kts 134°
2026-05-04 23:18 32.73030 -117.17605 19 ft 14 kts 279°
2026-05-04 23:19 32.73112 -117.17930 17 ft 76 kts 286°
2026-05-04 23:19 32.73312 -117.18744 12 ft 119 kts 277°
2026-05-04 23:19 32.73564 -117.19772 57 ft 138 kts 286°
2026-05-04 23:19 32.73872 -117.20568 752 ft 125 kts 320°
2026-05-04 23:20 32.74507 -117.19856 702 ft 173 kts 85°
2026-05-04 23:20 32.74435 -117.18374 666 ft 183 kts 98°
2026-05-04 23:20 32.74190 -117.16972 943 ft 156 kts 132°
2026-05-04 23:20 32.73472 -117.16712 614 ft 95 kts 198°
2026-05-04 23:21 32.73055 -117.17111 259 ft 74 kts 255°
2026-05-04 23:21 32.73070 -117.17728 83 ft 69 kts 281°
2026-05-04 23:21 32.73184 -117.18242 23 ft 52 kts 287°
2026-05-04 23:21 32.73270 -117.18583 49 ft 48 kts 289°
2026-05-04 23:22 32.73425 -117.19180 63 ft 104 kts 286°
2026-05-04 23:22 32.73651 -117.20087 443 ft 119 kts 287°
2026-05-04 23:22 32.73971 -117.20962 923 ft 120 kts 308°
2026-05-04 23:22 32.74843 -117.20938 1039 ft 163 kts 48°
2026-05-04 23:23 32.74756 -117.19600 956 ft 181 kts 108°
2026-05-04 23:23 32.74389 -117.18133 885 ft 189 kts 110°
2026-05-04 23:23 32.73862 -117.17105 813 ft 109 kts 167°
2026-05-04 23:23 32.73189 -117.16975 328 ft 82 kts 199°
2026-05-04 23:24 32.73019 -117.17458 128 ft 74 kts 284°
2026-05-04 23:24 32.73135 -117.18030 45 ft 62 kts 284°
2026-05-04 23:24 32.73245 -117.18474 21 ft 47 kts 287°
2026-05-04 23:24 32.73310 -117.18748 8 ft 24 kts 296°
2026-05-04 23:25 32.73396 -117.18808 19 ft 10 kts 16°
2026-05-04 23:25 32.73401 -117.18806 19 ft 0 kts 21°
2026-05-04 23:26 32.73409 -117.18801 18 ft 9 kts 38°
2026-05-04 23:26 32.73417 -117.18738 13 ft 8 kts 105°
2026-05-04 23:26 32.73402 -117.18674 19 ft 8 kts 106°
2026-05-04 23:26 32.73384 -117.18604 20 ft 11 kts 106°
2026-05-04 23:27 32.73359 -117.18502 21 ft 12 kts 108°
2026-05-04 23:27 32.73338 -117.18424 21 ft 8 kts 106°
2026-05-04 23:27 32.73321 -117.18363 20 ft 7 kts 109°
2026-05-04 23:27 32.73304 -117.18298 19 ft 10 kts 107°
2026-05-04 23:28 32.73282 -117.18210 19 ft 12 kts 106°
2026-05-04 23:28 32.73256 -117.18106 20 ft 14 kts 107°
2026-05-04 23:28 32.73229 -117.17984 18 ft 16 kts 105°
2026-05-04 23:28 32.73199 -117.17848 19 ft 17 kts 104°
2026-05-04 23:29 32.73167 -117.17711 21 ft 18 kts 105°
2026-05-04 23:29 32.73116 -117.17574 20 ft 19 kts 142°
2026-05-04 23:29 32.73019 -117.17623 20 ft 28 kts 283°
2026-05-04 23:29 32.73143 -117.18068 59 ft 88 kts 285°
2026-05-04 23:30 32.73364 -117.18940 206 ft 126 kts 287°
2026-05-04 23:30 32.73625 -117.19958 645 ft 129 kts 286°
2026-05-04 23:30 32.74088 -117.20890 945 ft 144 kts 326°
2026-05-04 23:30 32.75081 -117.20659 1169 ft 173 kts 47°
2026-05-04 23:31 32.75124 -117.19271 1160 ft 166 kts 103°
2026-05-04 23:31 32.75062 -117.17890 1466 ft 139 kts 54°
2026-05-04 23:31 32.74955 -117.16702 1334 ft 174 kts 115°
2026-05-04 23:31 32.74456 -117.15382 1316 ft 175 kts 142°
2026-05-04 23:32 32.73509 -117.15539 964 ft 118 kts 212°
2026-05-04 23:32 32.73014 -117.16114 591 ft 96 kts 247°
2026-05-04 23:32 32.72957 -117.16892 337 ft 93 kts 271°
2026-05-04 23:32 32.73022 -117.17576 139 ft 72 kts 283°
2026-05-04 23:33 32.73139 -117.18073 28 ft 47 kts 288°
2026-05-04 23:33 32.73218 -117.18369 21 ft 48 kts 287°
2026-05-04 23:33 32.73380 -117.19002 53 ft 108 kts 287°
2026-05-04 23:33 32.73621 -117.20008 100 ft 142 kts 285°
2026-05-04 23:34 32.73968 -117.21041 660 ft 132 kts 311°
2026-05-04 23:34 32.74808 -117.20796 914 ft 164 kts 73°
2026-05-04 23:34 32.74714 -117.19428 978 ft 176 kts 105°
2026-05-04 23:34 32.74307 -117.18005 1085 ft 180 kts 114°
2026-05-04 23:35 32.73670 -117.16667 931 ft 181 kts 159°
2026-05-04 23:35 32.72970 -117.17119 374 ft 106 kts 273°
2026-05-04 23:35 32.73090 -117.17839 61 ft 73 kts 283°
2026-05-04 23:35 32.73175 -117.18207 24 ft 0 kts 106°
2026-05-04 23:36 32.73183 -117.18237 22 ft 22 kts 286°
2026-05-04 23:36 32.73298 -117.18655 137 ft 76 kts 287°
2026-05-04 23:36 32.73675 -117.19202 541 ft 108 kts 355°
2026-05-04 23:36 32.74423 -117.19106 1061 ft 108 kts 334°
2026-05-04 23:37 32.74777 -117.19158 706 ft 152 kts 146°
2026-05-04 23:37 32.74225 -117.18110 1112 ft 160 kts 116°
2026-05-04 23:37 32.73852 -117.16809 1340 ft 172 kts 107°
2026-05-04 23:37 32.73477 -117.15384 1270 ft 193 kts 109°
2026-05-04 23:38 32.73081 -117.13868 1156 ft 197 kts 108°
2026-05-04 23:38 32.72680 -117.12326 1217 ft 192 kts 110°
2026-05-04 23:38 32.71931 -117.11206 1421 ft 177 kts 175°
2026-05-04 23:38 32.71504 -117.11922 1075 ft 116 kts 298°
2026-05-04 23:39 32.71810 -117.12636 841 ft 89 kts 289°
2026-05-04 23:39 32.72007 -117.13326 825 ft 91 kts 285°
2026-05-04 23:39 32.72183 -117.14050 768 ft 91 kts 279°
2026-05-04 23:39 32.72355 -117.14794 638 ft 94 kts 281°
2026-05-04 23:40 32.72557 -117.15551 502 ft 98 kts 282°
2026-05-04 23:40 32.72729 -117.16352 381 ft 103 kts 283°
2026-05-04 23:40 32.72915 -117.17119 222 ft 84 kts 287°
2026-05-04 23:40 32.73056 -117.17757 102 ft 80 kts 286°
2026-05-04 23:41 32.73202 -117.18334 27 ft 59 kts 286°
2026-05-04 23:41 32.73300 -117.18722 15 ft 44 kts 286°
2026-05-04 23:41 32.73319 -117.18797 20 ft 0 kts 287°